| time (UTC) | temp F | wind direction | speed MPH | gust MPH | rain 1hr in | rain 24hr in | rain mn in | humidity % | barometer mb |
| 20260507003804 | 76 | 107 | 5.0 | 9.0 | 0.00 | 0.00 | 0.00 | 74 | 1015.9 |
| 20260507003304 | 76 | 147 | 5.0 | 12.0 | 0.00 | 0.00 | 0.00 | 74 | 1016.0 |
| 20260507002805 | 75 | 152 | 3.0 | 8.0 | 0.00 | 0.00 | 0.00 | 74 | 1016.1 |
| 20260507002306 | 75 | 148 | 4.0 | 10.0 | 0.00 | 0.00 | 0.00 | 74 | 1016.0 |
| 20260507001305 | 75 | 166 | 6.0 | 10.0 | 0.00 | 0.00 | 0.00 | 75 | 1016.1 |
| 20260507000804 | 75 | 158 | 5.0 | 8.0 | 0.00 | 0.00 | 0.00 | 75 | 1016.2 |
| 20260507000306 | 75 | 118 | 5.0 | 10.0 | 0.00 | 0.00 | 0.00 | 75 | 1016.3 |
| 20260506234805 | 76 | 168 | 7.0 | 9.0 | 0.00 | 0.00 | 0.00 | 73 | 1016.2 |
| 20260506234306 | 76 | 171 | 6.0 | 13.0 | 0.00 | 0.00 | 0.00 | 73 | 1016.2 |
| 20260506233804 | 76 | 109 | 7.0 | 10.0 | 0.00 | 0.00 | 0.00 | 72 | 1016.1 |
| 20260506233305 | 76 | 153 | 7.0 | 12.0 | 0.00 | 0.00 | 0.00 | 73 | 1016.1 |
| 20260506232804 | 76 | 102 | 7.0 | 12.0 | 0.00 | 0.00 | 0.00 | 73 | 1016.1 |
| 20260506231806 | 76 | 105 | 6.0 | 10.0 | 0.00 | 0.00 | 0.00 | 74 | 1016.1 |
| 20260506230304 | 75 | 122 | 7.0 | 12.0 | 0.00 | 0.00 | 0.00 | 74 | 1015.9 |
| 20260506225306 | 75 | 128 | 4.0 | 12.0 | 0.00 | 0.00 | 0.00 | 76 | 1016.0 |
| 20260506224804 | 74 | 127 | 5.0 | 10.0 | 0.00 | 0.00 | 0.00 | 76 | 1015.9 |
| 20260506224304 | 74 | 114 | 3.0 | 7.0 | 0.00 | 0.00 | 0.00 | 77 | 1015.9 |
| 20260506223804 | 73 | 154 | 2.0 | 7.0 | 0.00 | 0.00 | 0.00 | 77 | 1015.9 |
| 20260506223304 | 73 | 154 | 4.0 | 8.0 | 0.00 | 0.00 | 0.00 | 77 | 1015.9 |
| 20260506222804 | 73 | 115 | 3.0 | 10.0 | 0.00 | 0.00 | 0.00 | 78 | 1015.8 |
| 20260506222306 | 72 | 118 | 6.0 | 8.0 | 0.00 | 0.00 | 0.00 | 79 | 1015.8 |
| 20260506221805 | 72 | 123 | 3.0 | 10.0 | 0.00 | 0.00 | 0.00 | 79 | 1015.7 |
| 20260506221304 | 72 | 132 | 8.0 | 12.0 | 0.00 | 0.00 | 0.00 | 79 | 1015.7 |
| 20260506220804 | 71 | 115 | 8.0 | 12.0 | 0.00 | 0.00 | 0.00 | 79 | 1015.7 |
| 20260506220305 | 70 | 149 | 3.0 | 7.0 | 0.00 | 0.00 | 0.00 | 81 | 1015.7 |
| 20260506215306 | 69 | 171 | 4.0 | 8.0 | 0.00 | 0.00 | 0.00 | 82 | 1015.5 |
| 20260506214804 | 69 | 128 | 3.0 | 8.0 | 0.00 | 0.00 | 0.00 | 83 | 1015.5 |
| 20260506214304 | 68 | 144 | 4.0 | 6.0 | 0.00 | 0.00 | 0.00 | 84 | 1015.5 |
| 20260506213805 | 68 | 142 | 3.0 | 6.0 | 0.00 | 0.00 | 0.00 | 85 | 1015.5 |
| 20260506213304 | 67 | 136 | 2.0 | 5.0 | 0.00 | 0.00 | 0.00 | 86 | 1015.5 |
| 20260506212306 | 66 | 138 | 2.0 | 5.0 | 0.00 | 0.00 | 0.00 | 86 | 1015.4 |
| 20260506211804 | 65 | 138 | 1.0 | 7.0 | 0.00 | 0.00 | 0.00 | 86 | 1015.4 |
| 20260506210804 | 65 | 136 | 0.0 | 3.0 | 0.00 | 0.00 | 0.00 | 86 | 1015.3 |
| 20260506210305 | 64 | 136 | 1.0 | 3.0 | 0.00 | 0.00 | 0.00 | 86 | 1015.3 |
| 20260506205806 | 64 | 137 | 0.0 | 2.0 | 0.00 | 0.00 | 0.00 | 86 | 1015.3 |
| 20260506205306 | 64 | 136 | 1.0 | 2.0 | 0.00 | 0.00 | 0.00 | 85 | 1015.2 |
| 20260506204804 | 64 | 136 | 1.0 | 3.0 | 0.00 | 0.00 | 0.00 | 85 | 1015.1 |
| 20260506203805 | 64 | 136 | 0.0 | 0.0 | 0.00 | 0.00 | 0.00 | 85 | 1015.0 |
| 20260506203304 | 64 | 136 | 0.0 | 2.0 | 0.00 | 0.00 | 0.00 | 85 | 1015.0 |
| 20260506202306 | 64 | 136 | 1.0 | 3.0 | 0.00 | 0.00 | 0.00 | 85 | 1014.8 |
| 20260506201304 | 64 | 136 | 0.0 | 2.0 | 0.00 | 0.00 | 0.00 | 85 | 1014.7 |
| 20260506200804 | 64 | 136 | 0.0 | 2.0 | 0.00 | 0.00 | 0.00 | 85 | 1014.7 |
| 20260506200304 | 64 | 136 | 1.0 | 2.0 | 0.00 | 0.00 | 0.00 | 85 | 1014.7 |
| 20260506195804 | 64 | 136 | 1.0 | 2.0 | 0.00 | 0.00 | 0.00 | 85 | 1014.7 |
| 20260506193804 | 64 | 136 | 0.0 | 0.0 | 0.00 | 0.00 | 0.00 | 85 | 1014.5 |
| 20260506193305 | 64 | 136 | 0.0 | 0.0 | 0.00 | 0.00 | 0.00 | 85 | 1014.5 |
| 20260506192806 | 64 | 136 | 0.0 | 0.0 | 0.00 | 0.00 | 0.00 | 85 | 1014.5 |
| 20260506192306 | 64 | 136 | 0.0 | 1.0 | 0.00 | 0.00 | 0.00 | 85 | 1014.5 |
| 20260506191805 | 64 | 136 | 1.0 | 3.0 | 0.00 | 0.00 | 0.00 | 85 | 1014.4 |
| 20260506191305 | 64 | 136 | 0.0 | 2.0 | 0.00 | 0.00 | 0.00 | 85 | 1014.5 |
| 20260506190804 | 64 | 136 | 1.0 | 3.0 | 0.00 | 0.00 | 0.00 | 85 | 1014.4 |
| 20260506190304 | 64 | 136 | 2.0 | 3.0 | 0.00 | 0.00 | 0.00 | 85 | 1014.4 |
| 20260506185806 | 64 | 136 | 0.0 | 3.0 | 0.00 | 0.00 | 0.00 | 85 | 1014.3 |
| 20260506185307 | 64 | 136 | 1.0 | 2.0 | 0.00 | 0.00 | 0.00 | 85 | 1014.3 |
| 20260506184804 | 64 | 136 | 0.0 | 2.0 | 0.00 | 0.00 | 0.00 | 85 | 1014.3 |
| 20260506184305 | 64 | 136 | 2.0 | 3.0 | 0.00 | 0.00 | 0.00 | 85 | 1014.3 |
| 20260506182307 | 65 | 138 | 1.0 | 3.0 | 0.00 | 0.00 | 0.00 | 85 | 1014.4 |
| 20260506181804 | 65 | 136 | 0.0 | 3.0 | 0.00 | 0.00 | 0.00 | 85 | 1014.3 |
| 20260506181305 | 65 | 136 | 1.0 | 5.0 | 0.00 | 0.00 | 0.00 | 85 | 1014.3 |
| 20260506180804 | 65 | 139 | 0.0 | 6.0 | 0.00 | 0.00 | 0.00 | 84 | 1014.3 |
| 20260506180305 | 65 | 136 | 1.0 | 3.0 | 0.00 | 0.00 | 0.00 | 84 | 1014.2 |
| 20260506175306 | 65 | 133 | 2.0 | 6.0 | 0.00 | 0.00 | 0.00 | 84 | 1014.3 |
| 20260506174304 | 65 | 142 | 2.0 | 5.0 | 0.00 | 0.00 | 0.00 | 84 | 1014.4 |
| 20260506173804 | 65 | 155 | 1.0 | 3.0 | 0.00 | 0.00 | 0.00 | 84 | 1014.4 |
| 20260506173305 | 65 | 153 | 2.0 | 7.0 | 0.00 | 0.00 | 0.00 | 84 | 1014.4 |
| 20260506172804 | 65 | 154 | 3.0 | 8.0 | 0.00 | 0.00 | 0.00 | 84 | 1014.4 |
| 20260506172307 | 65 | 159 | 2.0 | 6.0 | 0.00 | 0.00 | 0.00 | 84 | 1014.4 |
| 20260506171804 | 65 | 155 | 2.0 | 3.0 | 0.00 | 0.00 | 0.00 | 84 | 1014.4 |
| 20260506171305 | 65 | 155 | 3.0 | 3.0 | 0.00 | 0.00 | 0.00 | 84 | 1014.4 |
| 20260506170804 | 65 | 153 | 1.0 | 3.0 | 0.00 | 0.00 | 0.00 | 84 | 1014.4 |
| 20260506165805 | 65 | 150 | 3.0 | 7.0 | 0.00 | 0.00 | 0.00 | 84 | 1014.4 |
| 20260506165305 | 65 | 152 | 2.0 | 8.0 | 0.00 | 0.00 | 0.00 | 84 | 1014.4 |
| 20260506164804 | 65 | 149 | 2.0 | 5.0 | 0.00 | 0.00 | 0.00 | 84 | 1014.5 |
| 20260506163304 | 65 | 149 | 2.0 | 7.0 | 0.00 | 0.00 | 0.00 | 84 | 1014.5 |
| 20260506162804 | 65 | 161 | 1.0 | 6.0 | 0.00 | 0.00 | 0.00 | 84 | 1014.6 |
| 20260506162306 | 65 | 156 | 1.0 | 3.0 | 0.00 | 0.00 | 0.00 | 84 | 1014.6 |
| 20260506161804 | 65 | 152 | 2.0 | 8.0 | 0.00 | 0.00 | 0.00 | 84 | 1014.6 |
| 20260506161304 | 65 | 159 | 1.0 | 5.0 | 0.00 | 0.00 | 0.00 | 84 | 1014.7 |
| 20260506160804 | 65 | 158 | 3.0 | 6.0 | 0.00 | 0.00 | 0.00 | 83 | 1014.8 |
| 20260506160304 | 65 | 159 | 2.0 | 6.0 | 0.00 | 0.00 | 0.00 | 83 | 1014.8 |
| 20260506155805 | 65 | 158 | 1.0 | 3.0 | 0.00 | 0.00 | 0.00 | 83 | 1014.9 |
| 20260506155306 | 65 | 159 | 2.0 | 6.0 | 0.00 | 0.00 | 0.00 | 83 | 1015.0 |
| 20260506154805 | 65 | 140 | 2.0 | 3.0 | 0.00 | 0.00 | 0.00 | 83 | 1015.1 |
| 20260506154305 | 65 | 142 | 2.0 | 7.0 | 0.00 | 0.00 | 0.00 | 83 | 1015.1 |
| 20260506153804 | 66 | 149 | 1.0 | 5.0 | 0.00 | 0.00 | 0.00 | 83 | 1015.2 |
| 20260506153305 | 66 | 147 | 2.0 | 9.0 | 0.00 | 0.00 | 0.00 | 83 | 1015.2 |
| 20260506152806 | 66 | 135 | 2.0 | 7.0 | 0.00 | 0.00 | 0.00 | 83 | 1015.3 |
| 20260506151304 | 66 | 137 | 2.0 | 10.0 | 0.00 | 0.00 | 0.00 | 83 | 1015.3 |
| 20260506150805 | 66 | 134 | 5.0 | 10.0 | 0.00 | 0.00 | 0.00 | 83 | 1015.4 |
| 20260506145306 | 66 | 123 | 2.0 | 12.0 | 0.00 | 0.00 | 0.00 | 83 | 1015.4 |
| 20260506144805 | 66 | 131 | 3.0 | 12.0 | 0.00 | 0.00 | 0.00 | 82 | 1015.4 |
| 20260506143804 | 66 | 131 | 2.0 | 9.0 | 0.00 | 0.00 | 0.00 | 82 | 1015.4 |
| 20260506143305 | 67 | 132 | 3.0 | 8.0 | 0.00 | 0.00 | 0.00 | 82 | 1015.5 |
| 20260506142804 | 67 | 134 | 5.0 | 12.0 | 0.00 | 0.00 | 0.00 | 82 | 1015.5 |
| 20260506142306 | 67 | 129 | 5.0 | 9.0 | 0.00 | 0.00 | 0.00 | 82 | 1015.5 |
| 20260506141804 | 67 | 142 | 4.0 | 9.0 | 0.00 | 0.00 | 0.00 | 82 | 1015.5 |
| 20260506140805 | 67 | 136 | 3.0 | 9.0 | 0.00 | 0.00 | 0.00 | 82 | 1015.6 |
| 20260506135805 | 67 | 152 | 3.0 | 8.0 | 0.00 | 0.00 | 0.00 | 82 | 1015.7 |
| 20260506135306 | 67 | 139 | 5.0 | 8.0 | 0.00 | 0.00 | 0.00 | 82 | 1015.7 |
| 20260506134804 | 67 | 128 | 3.0 | 7.0 | 0.00 | 0.00 | 0.00 | 82 | 1015.7 |
| 20260506133804 | 67 | 144 | 3.0 | 6.0 | 0.00 | 0.00 | 0.00 | 82 | 1015.8 |
| 20260506133305 | 67 | 130 | 5.0 | 9.0 | 0.00 | 0.00 | 0.00 | 82 | 1015.8 |
| 20260506132307 | 67 | 136 | 2.0 | 7.0 | 0.00 | 0.00 | 0.00 | 82 | 1015.8 |
| 20260506131805 | 67 | 127 | 3.0 | 7.0 | 0.00 | 0.00 | 0.00 | 82 | 1015.9 |
| 20260506131305 | 67 | 147 | 3.0 | 6.0 | 0.00 | 0.00 | 0.00 | 82 | 1016.0 |
| 20260506130805 | 67 | 142 | 3.0 | 7.0 | 0.00 | 0.00 | 0.00 | 82 | 1015.9 |
| 20260506130304 | 67 | 153 | 5.0 | 9.0 | 0.00 | 0.00 | 0.00 | 82 | 1015.9 |
| 20260506125804 | 67 | 138 | 5.0 | 9.0 | 0.00 | 0.00 | 0.00 | 82 | 1015.9 |
| 20260506125306 | 67 | 150 | 3.0 | 7.0 | 0.00 | 0.00 | 0.00 | 81 | 1016.0 |
| 20260506124804 | 67 | 149 | 2.0 | 5.0 | 0.00 | 0.00 | 0.00 | 81 | 1016.1 |
| 20260506124305 | 67 | 148 | 2.0 | 3.0 | 0.00 | 0.00 | 0.00 | 81 | 1016.1 |
| 20260506123805 | 67 | 148 | 1.0 | 3.0 | 0.00 | 0.00 | 0.00 | 81 | 1016.2 |
| 20260506123305 | 68 | 148 | 2.0 | 3.0 | 0.00 | 0.00 | 0.00 | 81 | 1016.2 |
| 20260506121304 | 68 | 161 | 2.0 | 6.0 | 0.00 | 0.00 | 0.00 | 81 | 1016.4 |
| 20260506120804 | 68 | 161 | 3.0 | 8.0 | 0.00 | 0.00 | 0.00 | 81 | 1016.5 |
| 20260506120304 | 68 | 164 | 5.0 | 9.0 | 0.00 | 0.00 | 0.00 | 81 | 1016.5 |
| 20260506115805 | 68 | 152 | 3.0 | 6.0 | 0.00 | 0.00 | 0.00 | 81 | 1016.5 |
| 20260506115307 | 68 | 146 | 3.0 | 10.0 | 0.00 | 0.00 | 0.00 | 81 | 1016.6 |
| 20260506114804 | 68 | 160 | 5.0 | 8.0 | 0.00 | 0.00 | 0.00 | 81 | 1016.5 |
| 20260506113806 | 68 | 131 | 3.0 | 7.0 | 0.00 | 0.00 | 0.00 | 81 | 1016.5 |
| 20260506113305 | 68 | 132 | 3.0 | 5.0 | 0.00 | 0.00 | 0.00 | 81 | 1016.5 |
| 20260506112805 | 68 | 132 | 2.0 | 5.0 | 0.00 | 0.00 | 0.00 | 81 | 1016.5 |
| 20260506111805 | 68 | 133 | 3.0 | 7.0 | 0.00 | 0.00 | 0.00 | 81 | 1016.6 |
| 20260506110805 | 68 | 139 | 2.0 | 7.0 | 0.00 | 0.00 | 0.00 | 81 | 1016.6 |
| 20260506110304 | 68 | 117 | 3.0 | 7.0 | 0.00 | 0.00 | 0.00 | 81 | 1016.6 |
| 20260506105804 | 68 | 123 | 3.0 | 8.0 | 0.00 | 0.00 | 0.00 | 81 | 1016.5 |
| 20260506105305 | 69 | 113 | 3.0 | 7.0 | 0.00 | 0.00 | 0.00 | 81 | 1016.4 |
| 20260506104806 | 69 | 105 | 1.0 | 6.0 | 0.00 | 0.00 | 0.00 | 81 | 1016.4 |
| 20260506104304 | 69 | 101 | 1.0 | 2.0 | 0.00 | 0.00 | 0.00 | 80 | 1016.3 |
| 20260506103804 | 69 | 101 | 1.0 | 2.0 | 0.00 | 0.00 | 0.00 | 80 | 1016.3 |
| 20260506103304 | 69 | 101 | 1.0 | 3.0 | 0.00 | 0.00 | 0.00 | 80 | 1016.3 |
| 20260506102305 | 69 | 101 | 2.0 | 3.0 | 0.00 | 0.00 | 0.00 | 80 | 1016.1 |
| 20260506100804 | 70 | 101 | 1.0 | 2.0 | 0.00 | 0.00 | 0.00 | 80 | 1016.0 |
| 20260506095804 | 70 | 101 | 1.0 | 3.0 | 0.00 | 0.00 | 0.00 | 80 | 1016.0 |
| 20260506094304 | 70 | 101 | 2.0 | 3.0 | 0.00 | 0.00 | 0.00 | 79 | 1015.6 |
| 20260506093805 | 71 | 101 | 1.0 | 3.0 | 0.00 | 0.00 | 0.00 | 79 | 1015.5 |
| 20260506093304 | 71 | 101 | 3.0 | 6.0 | 0.00 | 0.00 | 0.00 | 78 | 1015.3 |
| 20260506092805 | 71 | 103 | 3.0 | 6.0 | 0.00 | 0.00 | 0.00 | 78 | 1015.2 |
| 20260506092306 | 71 | 120 | 4.0 | 10.0 | 0.00 | 0.00 | 0.00 | 78 | 1015.1 |
| 20260506091804 | 71 | 113 | 5.0 | 8.0 | 0.00 | 0.00 | 0.00 | 78 | 1015.0 |
| 20260506091304 | 71 | 85 | 4.0 | 8.0 | 0.00 | 0.00 | 0.00 | 78 | 1015.0 |
| 20260506090805 | 72 | 84 | 3.0 | 5.0 | 0.00 | 0.00 | 0.00 | 78 | 1014.9 |
| 20260506090304 | 72 | 89 | 2.0 | 5.0 | 0.00 | 0.00 | 0.00 | 78 | 1014.8 |
| 20260506085805 | 72 | 90 | 2.0 | 3.0 | 0.00 | 0.00 | 0.00 | 77 | 1014.7 |
| 20260506085306 | 72 | 87 | 2.0 | 3.0 | 0.00 | 0.00 | 0.00 | 77 | 1014.7 |
| 20260506084805 | 72 | 88 | 2.0 | 5.0 | 0.00 | 0.00 | 0.00 | 77 | 1014.7 |
| 20260506084305 | 72 | 88 | 2.0 | 5.0 | 0.00 | 0.00 | 0.00 | 78 | 1014.6 |
| 20260506082804 | 73 | 24 | 1.0 | 2.0 | 0.00 | 0.00 | 0.00 | 76 | 1014.4 |
| 20260506082305 | 74 | 24 | 1.0 | 2.0 | 0.00 | 0.00 | 0.00 | 76 | 1014.3 |
| 20260506081806 | 74 | 24 | 1.0 | 2.0 | 0.00 | 0.00 | 0.00 | 76 | 1014.3 |
| 20260506081304 | 74 | 24 | 1.0 | 2.0 | 0.00 | 0.00 | 0.00 | 76 | 1014.2 |
| 20260506080804 | 74 | 24 | 1.0 | 2.0 | 0.00 | 0.00 | 0.00 | 76 | 1014.2 |
| 20260506080305 | 75 | 24 | 1.0 | 3.0 | 0.00 | 0.00 | 0.00 | 75 | 1014.2 |
| 20260506073304 | 77 | 3 | 0.0 | 0.0 | 0.00 | 0.00 | 0.00 | 72 | 1013.8 |
| 20260506072804 | 77 | 3 | 0.0 | 0.0 | 0.00 | 0.00 | 0.00 | 72 | 1013.7 |
| 20260506072306 | 77 | 3 | 1.0 | 5.0 | 0.00 | 0.00 | 0.00 | 72 | 1013.5 |
| 20260506071804 | 77 | 26 | 5.0 | 5.0 | 0.00 | 0.00 | 0.00 | 72 | 1013.4 |
| 20260506071305 | 77 | 26 | 5.0 | 7.0 | 0.00 | 0.00 | 0.00 | 72 | 1013.4 |
| 20260506070805 | 77 | 54 | 4.0 | 6.0 | 0.00 | 0.00 | 0.00 | 72 | 1013.3 |
| 20260506070304 | 80 | 3 | 0.0 | 0.0 | 0.00 | 0.00 | 0.00 | 68 | 1013.3 |
| 20260506062305 | 80 | 38 | 3.0 | 6.0 | 0.00 | 0.00 | 0.00 | 68 | 1012.9 |
| 20260506061806 | 80 | 29 | 4.0 | 8.0 | 0.00 | 0.00 | 0.00 | 68 | 1012.9 |
| 20260506061306 | 80 | 58 | 5.0 | 9.0 | 0.00 | 0.00 | 0.00 | 68 | 1012.8 |
| 20260506060804 | 80 | 63 | 5.0 | 10.0 | 0.00 | 0.00 | 0.00 | 68 | 1012.7 |
| 20260506051304 | 79 | 47 | 5.0 | 8.0 | 0.00 | 0.00 | 0.00 | 68 | 1012.8 |
| 20260506050305 | 78 | 44 | 3.0 | 7.0 | 0.00 | 0.00 | 0.00 | 68 | 1012.8 |
| 20260506044804 | 79 | 60 | 3.0 | 5.0 | 0.00 | 0.00 | 0.00 | 67 | 1013.0 |
| 20260506044305 | 79 | 62 | 4.0 | 6.0 | 0.00 | 0.00 | 0.00 | 67 | 1013.0 |
| 20260506043805 | 79 | 77 | 1.0 | 8.0 | 0.00 | 0.00 | 0.00 | 63 | 1013.0 |
| 20260506043304 | 79 | 2 | 0.0 | 0.0 | 0.00 | 0.00 | 0.00 | 63 | 1013.0 |
| 20260506042804 | 79 | 5 | 1.0 | 3.0 | 0.00 | 0.00 | 0.00 | 63 | 1013.0 |
| 20260506042305 | 79 | 90 | 3.0 | 3.0 | 0.00 | 0.00 | 0.00 | 63 | 1013.0 |
| 20260506041804 | 79 | 90 | 4.0 | 7.0 | 0.00 | 0.00 | 0.00 | 63 | 1013.0 |
| 20260506041305 | 79 | 3 | 0.0 | 0.0 | 0.00 | 0.00 | 0.00 | 63 | 1013.1 |
| 20260506040805 | 79 | 3 | 0.0 | 0.0 | 0.00 | 0.00 | 0.00 | 63 | 1013.0 |
| 20260506040305 | 79 | 3 | 0.0 | 0.0 | 0.00 | 0.00 | 0.00 | 63 | 1013.0 |
| 20260506035804 | 79 | 3 | 0.0 | 0.0 | 0.00 | 0.00 | 0.00 | 63 | 1013.0 |
| 20260506035306 | 79 | 3 | 0.0 | 0.0 | 0.00 | 0.00 | 0.00 | 63 | 1013.1 |
| 20260506034804 | 79 | 3 | 0.0 | 0.0 | 0.00 | 0.00 | 0.00 | 63 | 1013.0 |
| 20260506034304 | 79 | 5 | 0.0 | 1.0 | 0.00 | 0.00 | 0.00 | 63 | 1013.0 |
| 20260506033804 | 79 | 88 | 1.0 | 1.0 | 0.00 | 0.00 | 0.00 | 63 | 1013.0 |
| 20260506033305 | 79 | 88 | 1.0 | 3.0 | 0.00 | 0.00 | 0.00 | 63 | 1013.1 |
| 20260506032804 | 79 | 88 | 3.0 | 5.0 | 0.00 | 0.00 | 0.00 | 64 | 1013.2 |
| 20260506031804 | 79 | 76 | 2.0 | 9.0 | 0.00 | 0.00 | 0.00 | 63 | 1013.4 |
| 20260506031304 | 80 | 78 | 5.0 | 10.0 | 0.00 | 0.00 | 0.00 | 63 | 1013.4 |
| 20260506030804 | 80 | 112 | 6.0 | 8.0 | 0.00 | 0.00 | 0.00 | 63 | 1013.4 |
| 20260506030306 | 81 | 96 | 6.0 | 6.0 | 0.00 | 0.00 | 0.00 | 61 | 1013.4 |
| 20260506025306 | 81 | 124 | 1.0 | 5.0 | 0.00 | 0.00 | 0.00 | 61 | 1013.5 |
| 20260506024804 | 80 | 138 | 3.0 | 7.0 | 0.00 | 0.00 | 0.00 | 61 | 1013.7 |
| 20260506023805 | 80 | 135 | 6.0 | 9.0 | 0.00 | 0.00 | 0.00 | 61 | 1013.9 |
| 20260506023305 | 81 | 115 | 8.0 | 15.0 | 0.00 | 0.00 | 0.00 | 63 | 1013.9 |
| 20260506022804 | 80 | 60 | 3.0 | 9.0 | 0.00 | 0.00 | 0.00 | 63 | 1013.9 |
| 20260506022306 | 80 | 96 | 5.0 | 9.0 | 0.00 | 0.00 | 0.00 | 63 | 1014.0 |
| 20260506021304 | 80 | 3 | 0.0 | 8.0 | 0.00 | 0.00 | 0.00 | 62 | 1014.3 |
| 20260506020805 | 80 | 92 | 8.0 | 8.0 | 0.00 | 0.00 | 0.00 | 62 | 1014.3 |
| 20260506020304 | 80 | 92 | 8.0 | 9.0 | 0.00 | 0.00 | 0.00 | 62 | 1014.4 |
| 20260506015804 | 80 | 82 | 3.0 | 9.0 | 0.00 | 0.00 | 0.00 | 61 | 1014.4 |
| 20260506015306 | 80 | 96 | 7.0 | 12.0 | 0.00 | 0.00 | 0.00 | 61 | 1014.6 |
| 20260506014805 | 80 | 132 | 4.0 | 8.0 | 0.00 | 0.00 | 0.00 | 61 | 1014.6 |
| 20260506014305 | 81 | 115 | 7.0 | 8.0 | 0.00 | 0.00 | 0.00 | 61 | 1014.7 |
| 20260506013804 | 81 | 106 | 6.0 | 7.0 | 0.00 | 0.00 | 0.00 | 61 | 1014.9 |
| 20260506013306 | 81 | 130 | 4.0 | 6.0 | 0.00 | 0.00 | 0.00 | 61 | 1015.0 |
| 20260506012804 | 81 | 151 | 3.0 | 9.0 | 0.00 | 0.00 | 0.00 | 61 | 1015.1 |
| 20260506012307 | 80 | 74 | 4.0 | 6.0 | 0.00 | 0.00 | 0.00 | 63 | 1015.1 |
| 20260506011304 | 80 | 63 | 3.0 | 9.0 | 0.00 | 0.00 | 0.00 | 63 | 1015.3 |
| 20260506010805 | 80 | 32 | 1.0 | 8.0 | 0.00 | 0.00 | 0.00 | 63 | 1015.3 |
| 20260506010305 | 79 | 90 | 4.0 | 10.0 | 0.00 | 0.00 | 0.00 | 63 | 1015.4 |
| 20260506005805 | 79 | 79 | 6.0 | 12.0 | 0.00 | 0.00 | 0.00 | 63 | 1015.5 |
| 20260506004805 | 79 | 80 | 3.0 | 10.0 | 0.00 | 0.00 | 0.00 | 64 | 1015.8 |
| 20260506004304 | 79 | 82 | 9.0 | 12.0 | 0.00 | 0.00 | 0.00 | 65 | 1015.8 |